Meteo pe oră la Bolshoe Mihaylovskoe

Astăzi, 9 Mai, Duminică

Timp Temperatura Precipitaţii Vânt Presiune Umiditate
00:00 +7°C° 0.6 mm 2 m/s 738 mmHg 97%
01:00 +7°C° 0.1 mm 3 m/s 738 mmHg 97%
02:00 +5°C° 0.1 mm 4 m/s 738 mmHg 97%
03:00 +5°C° 0 mm 4 m/s 739 mmHg 97%
04:00 +3°C° 0.2 mm 5 m/s 739 mmHg 97%
05:00 +3°C° 0.2 mm 5 m/s 739 mmHg 97%
06:00 +2°C° 0.2 mm 5 m/s 740 mmHg 97%
07:00 +2°C° 0.1 mm 5 m/s 741 mmHg 96%
08:00 +2°C° 0.1 mm 5 m/s 741 mmHg 95%
09:00 +1°C° 0 mm 5 m/s 742 mmHg 95%
10:00 +2°C° 0.2 mm 5 m/s 743 mmHg 93%
11:00 +2°C° 0.2 mm 5 m/s 744 mmHg 91%
12:00 +3°C° 0.2 mm 5 m/s 744 mmHg 88%
13:00 +5°C° 0.1 mm 5 m/s 745 mmHg 80%
14:00 +7°C° 0.1 mm 6 m/s 745 mmHg 71%
15:00 +9°C° 0.1 mm 6 m/s 746 mmHg 63%
16:00 +9°C° 0 mm 5 m/s 746 mmHg 61%
17:00 +9°C° 0 mm 5 m/s 747 mmHg 59%
18:00 +9°C° 0 mm 5 m/s 747 mmHg 58%
19:00 +7°C° 0 mm 4 m/s 748 mmHg 63%
20:00 +7°C° 0 mm 3 m/s 749 mmHg 69%
21:00 +5°C° 0 mm 2 m/s 749 mmHg 74%
22:00 +4°C° 0 mm 2 m/s 750 mmHg 75%
23:00 +3°C° 0 mm 3 m/s 751 mmHg 76%

Mâine, 10 Mai, Luni

Timp Temperatura Precipitaţii Vânt Presiune Umiditate
00:00 +2°C° 0 mm 3 m/s 752 mmHg 77%
01:00 +2°C° 0 mm 3 m/s 752 mmHg 78%
02:00 +2°C° 0 mm 2 m/s 753 mmHg 79%
03:00 +1°C° 0 mm 2 m/s 754 mmHg 80%
04:00 +1°C° 0 mm 2 m/s 754 mmHg 78%
05:00 +2°C° 0 mm 2 m/s 755 mmHg 75%
06:00 +2°C° 0 mm 2 m/s 755 mmHg 73%
07:00 +4°C° 0 mm 2 m/s 756 mmHg 66%
08:00 +6°C° 0 mm 2 m/s 756 mmHg 58%
09:00 +9°C° 0 mm 2 m/s 756 mmHg 51%
10:00 +10°C° 0 mm 2 m/s 756 mmHg 47%
11:00 +12°C° 0 mm 2 m/s 757 mmHg 44%
12:00 +13°C° 0 mm 2 m/s 757 mmHg 40%
13:00 +13°C° 0 mm 2 m/s 757 mmHg 40%
14:00 +14°C° 0 mm 2 m/s 757 mmHg 39%
15:00 +14°C° 0 mm 2 m/s 757 mmHg 39%
16:00 +14°C° 0 mm 2 m/s 757 mmHg 43%
17:00 +14°C° 0 mm 2 m/s 757 mmHg 47%
18:00 +14°C° 0 mm 2 m/s 757 mmHg 51%
19:00 +12°C° 0 mm 2 m/s 757 mmHg 58%
20:00 +10°C° 0 mm 1 m/s 757 mmHg 65%
21:00 +8°C° 0 mm 1 m/s 757 mmHg 72%
22:00 +7°C° 0 mm 1 m/s 758 mmHg 73%
23:00 +6°C° 0 mm 1 m/s 758 mmHg 74%

Poimâine, 11 Mai, Marţi

Timp Temperatura Precipitaţii Vânt Presiune Umiditate
00:00 +6°C° 0 mm 1 m/s 758 mmHg 75%
01:00 +5°C° 0 mm 1 m/s 758 mmHg 76%
02:00 +5°C° 0 mm 1 m/s 758 mmHg 77%
03:00 +5°C° 0 mm 1 m/s 758 mmHg 78%
04:00 +5°C° 0 mm 1 m/s 758 mmHg 76%
05:00 +6°C° 0 mm 1 m/s 758 mmHg 75%
06:00 +6°C° 0 mm 1 m/s 759 mmHg 74%
07:00 +8°C° 0 mm 2 m/s 759 mmHg 67%
08:00 +10°C° 0 mm 2 m/s 759 mmHg 59%
09:00 +12°C° 0 mm 3 m/s 759 mmHg 52%
10:00 +13°C° 0 mm 3 m/s 758 mmHg 48%
11:00 +16°C° 0 mm 3 m/s 758 mmHg 45%
12:00 +17°C° 0 mm 4 m/s 758 mmHg 41%
13:00 +18°C° 0 mm 3 m/s 758 mmHg 41%
14:00 +18°C° 0 mm 3 m/s 758 mmHg 41%
15:00 +19°C° 0 mm 3 m/s 757 mmHg 41%
16:00 +18°C° 0 mm 3 m/s 757 mmHg 46%
17:00 +18°C° 0 mm 3 m/s 757 mmHg 52%
18:00 +18°C° 0 mm 3 m/s 757 mmHg 57%
19:00 +16°C° 0 mm 2 m/s 757 mmHg 65%
20:00 +14°C° 0 mm 2 m/s 757 mmHg 73%
21:00 +12°C° 0 mm 2 m/s 757 mmHg 81%
22:00 +10°C° 0 mm 2 m/s 757 mmHg 83%
23:00 +10°C° 0 mm 2 m/s 757 mmHg 85%

12 Mai, Miercuri

Timp Temperatura Precipitaţii Vânt Presiune Umiditate
00:00 +9°C° 0 mm 2 m/s 757 mmHg 87%
01:00 +9°C° 0 mm 2 m/s 757 mmHg 89%
02:00 +9°C° 0 mm 2 m/s 757 mmHg 90%
03:00 +9°C° 0 mm 2 m/s 756 mmHg 92%
04:00 +9°C° 0 mm 2 m/s 756 mmHg 90%
05:00 +10°C° 0 mm 3 m/s 756 mmHg 88%
06:00 +11°C° 0 mm 3 m/s 756 mmHg 87%
07:00 +13°C° 0 mm 3 m/s 756 mmHg 81%
08:00 +15°C° 0 mm 4 m/s 756 mmHg 75%
09:00 +17°C° 0 mm 5 m/s 755 mmHg 70%
10:00 +19°C° 0 mm 5 m/s 755 mmHg 70%
11:00 +19°C° 0 mm 5 m/s 755 mmHg 69%
12:00 +19°C° 0 mm 5 m/s 755 mmHg 69%
13:00 +20°C° 0.1 mm 5 m/s 755 mmHg 68%
14:00 +20°C° 0.1 mm 5 m/s 755 mmHg 66%
15:00 +20°C° 0.1 mm 5 m/s 755 mmHg 65%
16:00 +20°C° 0.3 mm 5 m/s 755 mmHg 69%
17:00 +19°C° 0.3 mm 5 m/s 754 mmHg 74%
18:00 +17°C° 0.3 mm 5 m/s 754 mmHg 78%
19:00 +17°C° 0.1 mm 4 m/s 754 mmHg 82%
20:00 +16°C° 0.1 mm 3 m/s 754 mmHg 85%
21:00 +14°C° 0.1 mm 3 m/s 754 mmHg 88%
22:00 +14°C° 0 mm 3 m/s 754 mmHg 89%
23:00 +14°C° 0 mm 2 m/s 753 mmHg 90%

13 Mai, Joi

Timp Temperatura Precipitaţii Vânt Presiune Umiditate
00:00 +14°C° 0 mm 2 m/s 753 mmHg 91%
01:00 +14°C° 0 mm 2 m/s 753 mmHg 92%
02:00 +13°C° 0 mm 3 m/s 753 mmHg 92%
03:00 +13°C° 0 mm 3 m/s 753 mmHg 92%
04:00 +13°C° 0.1 mm 3 m/s 753 mmHg 92%
05:00 +13°C° 0.1 mm 3 m/s 752 mmHg 92%
06:00 +13°C° 0.1 mm 4 m/s 752 mmHg 92%
07:00 +14°C° 0.1 mm 4 m/s 752 mmHg 89%
08:00 +14°C° 0.1 mm 4 m/s 752 mmHg 87%
09:00 +15°C° 0.1 mm 4 m/s 752 mmHg 84%
10:00 +17°C° 0.2 mm 4 m/s 752 mmHg 80%
11:00 +18°C° 0.2 mm 4 m/s 752 mmHg 76%
12:00 +19°C° 0.2 mm 4 m/s 752 mmHg 72%
13:00 +20°C° 0.3 mm 4 m/s 752 mmHg 70%
14:00 +20°C° 0.3 mm 4 m/s 752 mmHg 68%
15:00 +21°C° 0.3 mm 4 m/s 751 mmHg 66%
16:00 +20°C° 0.3 mm 3 m/s 751 mmHg 69%
17:00 +20°C° 0.3 mm 3 m/s 751 mmHg 73%
18:00 +20°C° 0.3 mm 3 m/s 751 mmHg 76%
19:00 +18°C° 0.1 mm 2 m/s 751 mmHg 81%
20:00 +16°C° 0.1 mm 2 m/s 751 mmHg 86%
21:00 +15°C° 0.1 mm 2 m/s 751 mmHg 91%
22:00 +14°C° 0 mm 2 m/s 751 mmHg 92%
23:00 +14°C° 0 mm 2 m/s 750 mmHg 93%

14 Mai, Vineri

Timp Temperatura Precipitaţii Vânt Presiune Umiditate
00:00 +13°C° 0 mm 2 m/s 750 mmHg 94%
01:00 +13°C° 0 mm 2 m/s 750 mmHg 95%
02:00 +13°C° 0 mm 2 m/s 750 mmHg 95%
03:00 +13°C° 0 mm 2 m/s 750 mmHg 96%
04:00 +14°C° 0.1 mm 2 m/s 750 mmHg 96%
05:00 +14°C° 0.1 mm 2 m/s 750 mmHg 96%
06:00 +14°C° 0.1 mm 2 m/s 750 mmHg 96%
07:00 +16°C° 0 mm 3 m/s 749 mmHg 90%
08:00 +18°C° 0 mm 3 m/s 749 mmHg 85%
09:00 +19°C° 0 mm 4 m/s 749 mmHg 79%
10:00 +21°C° 0 mm 4 m/s 749 mmHg 72%
11:00 +22°C° 0 mm 5 m/s 748 mmHg 64%
12:00 +23°C° 0 mm 5 m/s 748 mmHg 57%
13:00 +25°C° 0 mm 5 m/s 748 mmHg 55%
14:00 +25°C° 0 mm 5 m/s 748 mmHg 54%
15:00 +25°C° 0 mm 5 m/s 748 mmHg 53%
16:00 +25°C° 0 mm 4 m/s 747 mmHg 56%
17:00 +23°C° 0 mm 4 m/s 747 mmHg 60%
18:00 +22°C° 0 mm 4 m/s 747 mmHg 64%
19:00 +22°C° 0.3 mm 4 m/s 747 mmHg 70%
20:00 +21°C° 0.3 mm 4 m/s 746 mmHg 75%
21:00 +20°C° 0.3 mm 5 m/s 746 mmHg 81%
22:00 +19°C° 2 mm 4 m/s 746 mmHg 85%
23:00 +18°C° 2 mm 4 m/s 746 mmHg 88%
Arată mai mult

Formular de consimțământ

Meteoprog și furnizorii noștri de servicii pot stoca și accesa date personale, precum cookies, identificatori de dispozitiv sau alte tehnologii similare pe dispozitivul dumneavoastră și procesa astfel de date pentru a personaliza conținutul și reclamele, dar și pentru a oferi caracteristici de social media și pentru a analiza traficul.

  • Stocarea și/sau accesarea informațiilor pe dispozitivul dumneavoastră

    Cookies, identificatori de dispozitiv sau alte informații pot fi stocate sau accesate pe dispozitiv în scopurile indicate mai sus.

  • Reclame și conținut personalizat, evaluarea reclamelor și a conținutului, informații despre audiențe și dezvoltarea produselor

    Reclamele și conținutul pot fi personalizate pe baza unui profil. Pot fi adăugate date suplimentare pentru a personaliza mai bine reclamele și conținutul. Performanța reclamelor și conținutului poate fi măsurată. Pot fi obținute informații despre utilizatorii care au văzut reclamele și conținutul. Aceste date pot fi utilizate pentru a dezvolta sau îmbunătăți experiența utilizatorilor, sistemele și software-ul.

Dând clic pe ‘Sunt de acord’, permiteți utilizarea cookie-urilor menționate, a identificatorilor de dispozitiv, balizelor web sau altor tehnologii similare. Setările pot fi modificate din browser-ul dispozitivului dumneavoastră.

În anumite scopuri, interesele legitime pot prima asupra consimțământului. Puteți citi mai multe informații în acest sens în Politica privind Confidențialitatea Datelor și Cookie.